Location: ???????
(55.3754°N, 39.3545°E)
Time: 21:18:51
(UTC+00:00)

Sich 1 Rocket - Pass Details

Date: 14 April 2026
Orbit: 610 x 646 km, 82.5° (Epoch: 11 May)

Event Time Altitude Azimuth Distance (km) Brightness Sun altitude
Exits shadow 22:02:16 41° 283° (WNW) 917 4.4 -24.4°
Maximum altitude 22:02:27 41° 290° (WNW) 914 4.4 -24.4°
Drops below altitude 10° 22:06:38 10° 1° (N) 1,995 7.2 -24.3°
Sets 22:08:58 0° 9° (N) 2,901 8.4 -24.2°
